Location: Pinhey's Point
(45.4411°N, 75.9539°W)
Time: 05:23:54
(UTC-05:00)

Iridium 65 - Visible Passes

Search period start: 24 February 2017 00:00
Search period end: 06 March 2017 00:00
Orbit: 776 x 779 km, 86.4° (Epoch: 23 February)

Date Brightness Start Highest point End Pass type
(mag) Time Alt. Az. Time Alt. Az. Time Alt. Az.
24 Feb 5.7 18:56:23 10° N 19:01:28 49° E 19:06:30 10° SSE visible
24 Feb 7.8 20:37:53 10° NNW 20:41:49 22° W 20:45:45 10° SW visible
25 Feb 8.7 06:18:28 10° E 06:20:35 12° ENE 06:22:42 10° NE visible
25 Feb 6.4 18:23:15 10° NNE 18:27:45 28° ENE 18:32:11 10° SE visible
25 Feb 6.9 20:03:44 10° NNW 20:08:32 38° W 20:13:19 10° SSW visible
26 Feb 5.9 19:29:57 10° N 19:35:09 68° W 19:40:19 10° S visible
27 Feb 5.5 18:56:24 10° N 19:01:37 69° E 19:06:49 10° S visible
27 Feb 8.4 20:38:40 10° NW 20:41:43 16° WNW 20:44:45 10° WSW visible
28 Feb 6.0 18:23:04 10° N 18:27:59 39° E 18:32:50 10° SSE visible
28 Feb 7.6 20:04:09 10° NNW 20:08:31 27° W 20:12:51 10° SW visible
01 Mar 6.6 19:30:11 10° NNW 19:35:12 47° W 19:40:10 10° SSW visible
02 Mar 5.6 18:56:29 10° N 19:01:44 84° W 19:06:57 10° S visible
02 Mar 8.8 20:40:12 10° WNW 20:41:33 11° WNW 20:42:55 10° W visible
03 Mar 5.6 18:23:01 10° N 18:28:10 55° E 18:33:17 10° SSE visible
03 Mar 8.2 20:04:46 10° NNW 20:08:26 20° WNW 20:12:06 10° WSW visible
04 Mar 8.7 05:44:31 10° ESE 05:47:10 14° ENE 05:49:50 10° NE visible
04 Mar 7.3 19:30:31 10° NNW 19:35:11 34° W 19:39:50 10° SSW visible
05 Mar 6.2 18:56:40 10° N 19:01:49 60° W 19:06:56 10° SSW visible
